Location: ??????
(55.6130°N, 37.7882°E)
Time: 05:43:00
(UTC+00:00)

Cosmos 2322 Rocket - Visible Passes

Search period start: 16 July 2024 00:00
Search period end: 26 July 2024 00:00
Orbit: 831 x 851 km, 71.0° (Epoch: 15 July)

Date Brightness Start Highest point End Pass type
(mag) Time Alt. Az. Time Alt. Az. Time Alt. Az.
23 Jul 4.7 00:26:09 10° SE 00:29:06 15° E 00:32:04 10° ENE visible
24 Jul 4.7 00:11:09 10° SE 00:13:54 14° E 00:16:39 10° ENE visible
24 Jul 4.7 23:56:11 10° ESE 23:58:42 13° E 00:01:14 10° ENE visible
25 Jul 4.7 23:41:14 10° ESE 23:43:30 12° E 23:45:46 10° ENE visible
